Location: Buffign�court
(47.8126°N, 6.0176°E)
Time: 19:34:51
(UTC+00:00)

Lacrosse 5 rocket - Pass Details

Date: 16 June 2021
Orbit: 460 x 634 km, 57.0° (Epoch: 31 July)

Event Time Altitude Azimuth Distance (km) Brightness Sun altitude
Rises 22:26:47 0° 242° (WSW) 2,520 4.6 -17.1°
Reaches altitude 10° 22:28:58 10° 247° (WSW) 1,628 3.6 -17.2°
Maximum altitude 22:32:33 58° 327° (NNW) 543 1.5 -17.4°
Drops below altitude 10° 22:36:06 10° 48° (NE) 1,611 4.0 -17.5°
Sets 22:38:16 0° 52° (NE) 2,491 5.0 -17.6°
